Location: Stara Lesna
(49.1528°N, 20.2911°E)
Time: 00:33:06
(UTC+02:00)

BREEZE-M DEB (TANK) - Pass Details

Date: 21 September 2019
Orbit: 332 x 13937 km, 49.6° (Epoch: 21 October)

Event Time Altitude Azimuth Distance (km) Brightness Sun altitude
Rises 04:44:37 0° 287° (WNW) 7,610 8.1 -16.5°
Reaches altitude 10° 04:51:40 10° 286° (WNW) 4,789 7.1 -15.4°
Maximum altitude 05:01:15 66° 207° (SSW) 857 3.6 -14.0°
Drops below altitude 10° 05:04:29 10° 124° (SE) 1,677 5.8 -13.5°
Sets 05:05:51 0° 120° (ESE) 2,328 6.7 -13.3°
